When you browse on this site, cookies collect data to enhance your experience and personalize the content and advertising you see.
Visit our Privacy Policy to learn more. By continuing to use the site, you agree to this use of cookies and data.
  • In France
  • List of Countries
  • For 7 days
  • Water Temperature
  • Satellite Maps
  • Weather Map
  • Weather Widgets
  • user-avatar
    Login

    Hourly Weather Suhochevo

    Today, 23 April, Tuesday

    Time Temperature Precipitation Wind Pressure Humidity
    00:00 +11°C° 0 mm 1 mps 756 mmHg 49%
    01:00 +11°C° 0 mm 1 mps 756 mmHg 50%
    02:00 +9°C° 0 mm 0 mps 756 mmHg 52%
    03:00 +9°C° 0 mm 0 mps 756 mmHg 54%
    04:00 +9°C° 0 mm 0 mps 756 mmHg 55%
    05:00 +9°C° 0 mm 0 mps 756 mmHg 56%
    06:00 +11°C° 0 mm 1 mps 756 mmHg 53%
    07:00 +13°C° 0 mm 1 mps 756 mmHg 49%
    08:00 +15°C° 0 mm 1 mps 757 mmHg 45%
    09:00 +16°C° 0 mm 1 mps 757 mmHg 40%
    10:00 +18°C° 0 mm 1 mps 757 mmHg 35%
    11:00 +19°C° 0 mm 2 mps 757 mmHg 30%
    12:00 +19°C° 0 mm 2 mps 756 mmHg 31%
    13:00 +19°C° 0 mm 2 mps 756 mmHg 32%
    14:00 +19°C° 0 mm 2 mps 756 mmHg 34%
    15:00 +19°C° 0 mm 2 mps 756 mmHg 36%
    16:00 +19°C° 0 mm 2 mps 756 mmHg 39%
    17:00 +18°C° 0 mm 2 mps 756 mmHg 42%
    18:00 +17°C° 0 mm 2 mps 756 mmHg 45%
    19:00 +15°C° 0 mm 2 mps 756 mmHg 48%
    20:00 +14°C° 0 mm 2 mps 756 mmHg 51%
    21:00 +13°C° 0 mm 2 mps 756 mmHg 53%
    22:00 +13°C° 0 mm 2 mps 756 mmHg 54%
    23:00 +12°C° 0 mm 2 mps 756 mmHg 56%

    Tomorrow, 24 April, Wednesday

    Time Temperature Precipitation Wind Pressure Humidity
    00:00 +12°C° 0 mm 2 mps 756 mmHg 58%
    01:00 +10°C° 0 mm 2 mps 757 mmHg 59%
    02:00 +10°C° 0 mm 2 mps 757 mmHg 60%
    03:00 +10°C° 0 mm 2 mps 757 mmHg 62%
    04:00 +10°C° 0 mm 2 mps 757 mmHg 65%
    05:00 +10°C° 0 mm 2 mps 757 mmHg 67%
    06:00 +13°C° 0 mm 2 mps 757 mmHg 63%
    07:00 +14°C° 0 mm 2 mps 757 mmHg 60%
    08:00 +16°C° 0 mm 3 mps 757 mmHg 56%
    09:00 +17°C° 0 mm 3 mps 757 mmHg 51%
    10:00 +19°C° 0 mm 3 mps 757 mmHg 46%
    11:00 +20°C° 0 mm 4 mps 757 mmHg 41%
    12:00 +21°C° 0 mm 3 mps 756 mmHg 40%
    13:00 +21°C° 0 mm 3 mps 756 mmHg 39%
    14:00 +22°C° 0 mm 3 mps 756 mmHg 38%
    15:00 +21°C° 0 mm 3 mps 756 mmHg 40%
    16:00 +21°C° 0 mm 2 mps 756 mmHg 43%
    17:00 +21°C° 0 mm 2 mps 756 mmHg 45%
    18:00 +19°C° 0 mm 2 mps 756 mmHg 49%
    19:00 +18°C° 0 mm 2 mps 756 mmHg 53%
    20:00 +16°C° 0 mm 1 mps 756 mmHg 56%
    21:00 +15°C° 0 mm 1 mps 756 mmHg 57%
    22:00 +15°C° 0 mm 1 mps 756 mmHg 59%
    23:00 +14°C° 0 mm 1 mps 756 mmHg 60%

    Day after tomorrow, 25 April, Thursday

    Time Temperature Precipitation Wind Pressure Humidity
    00:00 +14°C° 0 mm 1 mps 756 mmHg 61%
    01:00 +13°C° 0 mm 1 mps 756 mmHg 63%
    02:00 +13°C° 0 mm 1 mps 756 mmHg 64%
    03:00 +13°C° 0 mm 1 mps 756 mmHg 66%
    04:00 +12°C° 0 mm 1 mps 756 mmHg 67%
    05:00 +12°C° 0 mm 1 mps 756 mmHg 69%
    06:00 +14°C° 0 mm 1 mps 756 mmHg 64%
    07:00 +15°C° 0 mm 1 mps 756 mmHg 59%
    08:00 +17°C° 0 mm 2 mps 756 mmHg 54%
    09:00 +19°C° 0 mm 2 mps 756 mmHg 49%
    10:00 +20°C° 0 mm 2 mps 756 mmHg 45%
    11:00 +21°C° 0 mm 2 mps 756 mmHg 41%
    12:00 +23°C° 0 mm 2 mps 756 mmHg 39%
    13:00 +23°C° 0 mm 2 mps 756 mmHg 38%
    14:00 +24°C° 0 mm 1 mps 755 mmHg 36%
    15:00 +24°C° 0 mm 1 mps 755 mmHg 38%
    16:00 +24°C° 0 mm 1 mps 755 mmHg 40%
    17:00 +22°C° 0 mm 0 mps 755 mmHg 42%
    18:00 +20°C° 0 mm 0 mps 755 mmHg 45%
    19:00 +18°C° 0 mm 0 mps 755 mmHg 48%
    20:00 +16°C° 0 mm 0 mps 754 mmHg 52%
    21:00 +16°C° 0 mm 0 mps 754 mmHg 54%
    22:00 +15°C° 0 mm 0 mps 754 mmHg 56%
    23:00 +15°C° 0 mm 0 mps 754 mmHg 58%

    26 April, Friday

    Time Temperature Precipitation Wind Pressure Humidity
    00:00 +15°C° 0.3 mm 1 mps 754 mmHg 63%
    01:00 +15°C° 0.3 mm 1 mps 754 mmHg 67%
    02:00 +14°C° 0.3 mm 1 mps 754 mmHg 71%
    03:00 +14°C° 0.4 mm 1 mps 754 mmHg 73%
    04:00 +14°C° 0.4 mm 1 mps 754 mmHg 76%
    05:00 +14°C° 0.4 mm 1 mps 754 mmHg 78%
    06:00 +15°C° 0.1 mm 1 mps 754 mmHg 73%
    07:00 +16°C° 0.1 mm 1 mps 754 mmHg 67%
    08:00 +19°C° 0.1 mm 1 mps 754 mmHg 62%
    09:00 +20°C° 0 mm 1 mps 754 mmHg 57%
    10:00 +21°C° 0 mm 1 mps 754 mmHg 53%
    11:00 +23°C° 0 mm 1 mps 754 mmHg 49%
    12:00 +23°C° 0.5 mm 1 mps 754 mmHg 48%
    13:00 +23°C° 0.5 mm 2 mps 753 mmHg 46%
    14:00 +23°C° 0.5 mm 2 mps 753 mmHg 45%
    15:00 +23°C° 0 mm 2 mps 753 mmHg 48%
    16:00 +21°C° 0 mm 2 mps 753 mmHg 50%
    17:00 +21°C° 0 mm 2 mps 752 mmHg 53%
    18:00 +21°C° 0 mm 1 mps 752 mmHg 56%
    19:00 +19°C° 0 mm 1 mps 752 mmHg 59%
    20:00 +18°C° 0 mm 1 mps 752 mmHg 62%
    21:00 +16°C° 0 mm 1 mps 752 mmHg 64%
    22:00 +16°C° 0 mm 1 mps 752 mmHg 65%
    23:00 +15°C° 0 mm 1 mps 751 mmHg 67%

    27 April, Saturday

    Time Temperature Precipitation Wind Pressure Humidity
    00:00 +15°C° 0.1 mm 1 mps 751 mmHg 69%
    01:00 +14°C° 0.1 mm 1 mps 751 mmHg 72%
    02:00 +14°C° 0.1 mm 2 mps 751 mmHg 75%
    03:00 +13°C° 0 mm 2 mps 751 mmHg 76%
    04:00 +13°C° 0 mm 2 mps 751 mmHg 78%
    05:00 +13°C° 0 mm 2 mps 750 mmHg 80%
    06:00 +15°C° 0 mm 2 mps 750 mmHg 76%
    07:00 +16°C° 0 mm 3 mps 750 mmHg 71%
    08:00 +18°C° 0 mm 3 mps 750 mmHg 67%
    09:00 +19°C° 0.1 mm 3 mps 750 mmHg 61%
    10:00 +20°C° 0.1 mm 4 mps 749 mmHg 55%
    11:00 +22°C° 0.1 mm 4 mps 749 mmHg 48%
    12:00 +22°C° 0 mm 4 mps 749 mmHg 49%
    13:00 +22°C° 0 mm 4 mps 748 mmHg 49%
    14:00 +21°C° 0 mm 4 mps 748 mmHg 50%
    15:00 +21°C° 0 mm 4 mps 748 mmHg 53%
    16:00 +21°C° 0 mm 4 mps 747 mmHg 55%
    17:00 +20°C° 0 mm 4 mps 747 mmHg 58%
    18:00 +19°C° 0 mm 3 mps 747 mmHg 63%
    19:00 +18°C° 0 mm 3 mps 747 mmHg 68%
    20:00 +16°C° 0 mm 3 mps 747 mmHg 73%
    21:00 +16°C° 0.2 mm 2 mps 746 mmHg 76%
    22:00 +15°C° 0.2 mm 2 mps 746 mmHg 80%
    23:00 +15°C° 0.2 mm 1 mps 746 mmHg 84%

    28 April, Sunday

    Time Temperature Precipitation Wind Pressure Humidity
    00:00 +15°C° 0.6 mm 2 mps 746 mmHg 84%
    01:00 +14°C° 0.6 mm 3 mps 745 mmHg 84%
    02:00 +14°C° 0.6 mm 4 mps 745 mmHg 84%
    03:00 +13°C° 0 mm 4 mps 745 mmHg 83%
    04:00 +13°C° 0 mm 4 mps 744 mmHg 82%
    05:00 +12°C° 0 mm 4 mps 744 mmHg 81%
    06:00 +13°C° 0 mm 4 mps 744 mmHg 77%
    07:00 +15°C° 0 mm 5 mps 744 mmHg 72%
    08:00 +16°C° 0 mm 5 mps 744 mmHg 68%
    09:00 +17°C° 0 mm 6 mps 744 mmHg 63%
    10:00 +20°C° 0 mm 6 mps 744 mmHg 57%
    11:00 +21°C° 0 mm 7 mps 744 mmHg 52%
    12:00 +21°C° 0 mm 6 mps 744 mmHg 51%
    13:00 +22°C° 0 mm 6 mps 744 mmHg 49%
    14:00 +22°C° 0 mm 6 mps 743 mmHg 48%
    15:00 +22°C° 0 mm 5 mps 743 mmHg 51%
    16:00 +21°C° 0 mm 5 mps 743 mmHg 54%
    17:00 +21°C° 0 mm 4 mps 743 mmHg 57%
    18:00 +19°C° 0 mm 4 mps 743 mmHg 62%
    19:00 +18°C° 0 mm 3 mps 743 mmHg 66%
    20:00 +16°C° 0 mm 3 mps 743 mmHg 70%
    21:00 +14°C° 0 mm 3 mps 743 mmHg 72%
    22:00 +14°C° 0 mm 3 mps 743 mmHg 73%
    23:00 +13°C° 0 mm 3 mps 743 mmHg 75%
    Show more